Regional Weather Roundup
Issued by NWS Mt. Holly, NJ

Home | Current Version | Previous Version | Text Only | Print | Product List | Glossary On
Versions: 1 2 3 4 5 6 7 8 9 10 11 12 13 14 15 16 17 18 19 20 21 22 23 24 25 26 27 28 29 30 31 32 33 34 35 36 37 38 39 40 41 42 43 44 45 46 47 48 49 50
192
ASUS41 KPHI 260711
RWRPHI

REGIONAL WEATHER ROUNDUP
NATIONAL WEATHER SERVICE MOUNT HOLLY NJ
200 AM EST SUN FEB 26 2017

NOTE:  "FAIR" INDICATES FEW OR NO CLOUDS BELOW 12,000 FEET WITH NO
SIGNIFICANT WEATHER AND/OR OBSTRUCTIONS TO VISIBILITY.

 * = STATION DOES NOT REPORT PRECIPITATION (E.G. RAIN, SNOW, ETC.)
        OR FOG.

NJZ015>026-260800-
SOUTHERN NEW JERSEY

CITY           SKY/WX    TMP DP  RH WIND       PRES   REMARKS
POMONA         CLEAR     42  27  55 W13       29.79R
WILDWOOD*      CLEAR     43  30  60 NW15G22   29.82R
MILLVILLE      MOCLDY    42  29  59 W10       29.82R
WRIGHTSTOWN    CLEAR     42  25  51 NW17G23   29.76R
MOUNT HOLLY    CLEAR     42  24  49 W10G24    29.80R
TRENTON        CLEAR     41  25  53 NW15G24   29.77R

$$
NJZ001>014-260800-
NORTHERN NEW JERSEY

CITY           SKY/WX    TMP DP  RH WIND       PRES   REMARKS
SUSSEX         CLOUDY    38  26  62 NW9       29.75R WCI  31
ANDOVER*         N/A     38  29  70 NW8       29.74R WCI  32
MORRISTOWN     CLOUDY    41  30  65 W10       29.75R
NEWARK         CLOUDY    43  31  62 W17G30    29.73R
TETERBORO      CLOUDY    43  30  60 NW14G21   29.72R
CALDWELL       CLOUDY    42  29  59 NW10      29.74R
SOMERVILLE     CLOUDY    41  34  76 VRB3      29.75R
ALLAIRE*       CLOUDY    42  34  73 W14G21    29.76
TOMS RIVER*    CLEAR     41  27  57 W15G22    29.78R

$$
PAZ043-044-047-054-055-060>062-066>071-260800-
EASTERN PENNSYLVANIA

CITY           SKY/WX    TMP DP  RH WIND       PRES   REMARKS
PHILADELPHIA   PTCLDY    44  25  47 NW20G29   29.83R
NORTH PHILA    CLEAR     41  26  55 W10       29.82R
BLUE BELL*     CLEAR     37  25  60 W8G24     29.80R WCI  31
DOYLESTOWN     CLEAR     38  26  62 NW10G22   29.78R WCI  31
QUAKERTOWN*    PTCLDY    37  23  56 W8G22     29.80R WCI  31
PERKASIE*      FAIR      37  23  56 W20G32    29.80R WCI  27
POTTSTOWN      PTCLDY    36  22  56 W10G21    29.84R WCI  28
LANCASTER      MOCLDY    37  22  54 W20G29    29.86R WCI  27
COATESVILLE    PTCLDY    36  21  55 NW18G25   29.84R WCI  25
READING        CLOUDY    38  24  57 W15G24    29.84R WCI  29
ALLENTOWN      CLOUDY    40  24  53 W14G25    29.79R WCI  32
MOUNT POCONO   CLOUDY    30  26  85 W13G23    29.70R WCI  20
HAZLETON       CLOUDY    32  21  64 W15G23    29.80R WCI  22
LEHIGHTON      CLOUDY    37  27  65 W6G20     29.81R WCI  33
WILKES BARRE   CLOUDY    34  26  72 NW20      29.77R WCI  23

$$
DEZALL-MDZ008-012-015-019-020-260800-
DELAWARE AND EASTERN MARYLAND

CITY           SKY/WX    TMP DP  RH WIND       PRES   REMARKS
WILMINGTON     CLOUDY    41  26  55 NW16G22   29.85R
GEORGETOWN     CLEAR     44  25  47 NW12      29.84R
EASTON         CLEAR     43  24  47 N18G24    29.91R
ABERDEEN       CLOUDY    40  23  50 NW12      29.88R WCI  33
PATUXENT       CLEAR     43  26  51 NW24      29.88R
OCEAN CITY     CLEAR     44  26  49 NW14G26   29.83R
WALLOPS ISLAND CLEAR     45  29  53 NW9       29.85R
CAMBRIDGE      CLEAR     43  25  49 NW14      29.87R
SALISBURY      CLEAR     43  27  53 NW15G22   29.84R

$$
PAZ001-021-NYZ056-072-MDZ011-DCZ001-260800-
OTHER NEARBY LOCATIONS

CITY           SKY/WX    TMP DP  RH WIND       PRES   REMARKS
HARRISBURG     MOCLDY    36  20  52 NW24      29.88R WCI  24
STATE COLLEGE  CLOUDY    30  19  64 W10G23    29.88R WCI  21
WILLIAMSPORT   CLOUDY    35  22  58 W9        29.85R WCI  28
BINGHAMTON     CLOUDY    28  19  69 NW12G21   29.73R WCI  18
NEW YORK CITY  CLOUDY    41  31  67 VRB7G18   29.74R
BALTIMORE      MOCLDY    39  22  50 NW20G29   29.89R WCI  29
WASHINGTON DC  CLOUDY    42  23  46 NW15G25   29.92R

$$




USA.gov is the U.S. government's official web portal to all federal, state and local government web resources and services.